Regional Weather Roundup
Issued by NWS

Home | Current Version | Previous Version | Graphics & Text | Print | Product List | Glossary On
Versions: 1 2 3 4 5 6 7 8 9 10 11 12 13 14 15 16 17 18 19 20 21 22 23 24 25 26 27 28 29 30 31 32 33 34 35 36 37 38 39 40 41 42 43 44 45 46 47 48 49 50
000
ASUS43 KLMK 260902
RWRKY
KENTUCKY REGIONAL WEATHER ROUNDUP
NATIONAL WEATHER SERVICE LOUISVILLE KY
500 AM EDT WED JUL 26 2017

NOTE "FAIR" INDICATES FEW OR NO CLOUDS BELOW 12,000 FEET
WITH NO SIGNIFICANT WEATHER AND/OR OBSTRUCTIONS TO VISIBILITY.

KYZ001>023-026-027-061>063-070>075-261000-
WESTERN AND SOUTH CENTRAL KENTUCKY

CITY           SKY/WX    TMP DP  RH WIND       PRES   REMARKS
PADUCAH        PTCLDY    76  73  91 CALM      30.08R FOG
HENDERSON      PTCLDY    73  70  90 E5        30.10S
OWENSBORO      CLEAR     73  67  81 E6        30.10S
HOPKINSVILLE   CLEAR     74  71  91 CALM      30.09R
BOWLING GREEN  CLEAR     74  69  85 CALM      30.11R
GLASGOW        NOT AVBL
$$

KYZ024-025-028>034-038-045-046-053-261000-
NORTH CENTRAL KENTUCKY

CITY           SKY/WX    TMP DP  RH WIND       PRES   REMARKS
LOUISVILLE/SDF MOCLDY    71  62  73 E6        30.14R
LOUISVILLE/LOU MOCLDY    70  64  81 CALM      30.15R
FORT KNOX      MOCLDY    69  63  81 N3        30.12R
$$

KYZ035>037-039>044-047>052-055>060-089>105-261000-
NORTHEAST KENTUCKY

CITY           SKY/WX    TMP DP  RH WIND       PRES   REMARKS
LEXINGTON      CLEAR     64  59  83 E5        30.15S
COVINGTON      CLEAR     63  61  93 SE3       30.18R
FRANKFORT      CLEAR     65  59  81 E3        30.14S
$$

KYZ054-064>069-076>088-106>120-261000-
SOUTHEAST KENTUCKY

CITY           SKY/WX    TMP DP  RH WIND       PRES   REMARKS
JACKSON        CLEAR     62  59  90 CALM      30.15S
LONDON         CLEAR     64  61  90 CALM      30.14S
SOMERSET       CLEAR     64  64 100 CALM      30.14S
MIDDLESBORO    FOG       65  65 100 CALM      30.16R VSB 1
MONTICELLO     SUNNY     64  64 100 W7        30.14S FOG
$$





USA.gov is the U.S. government's official web portal to all federal, state and local government web resources and services.